Temperature
19 19 19 19 19 19 19 19 19 19 18 18 18 18 18 18 18 18 18 18 18 18 18 18 18 18 18 18 18 18 18 18 18 18 18 18 18 18 18 18 18 17 18
19 18 19 19 19 19 19 18 19 19 18 18 18 18 18 18 18 18 18 18 18 18 18 18 18 18 18 18 18 18 18 18 18 18 18 18 18 18 18 18 17 17 18
19 18 18 19 19 19 19 18 18 18 18 18 18 18 18 18 18 18 18 18 18 18 18 18 18 18 18 18 18 18 18 18 18 18 18 17 17 18 18 18 18 18 18
19 19 18 19 19 19 19 18 18 18 18 18 18 18 18 18 18 18 18 18 18 18 18 18 18 18 18 18 18 18 18 18 18 18 17 17 17 18 18 18 18 18 17
19 18 18 19 19 19 18 18 18 18 18 18 18 18 18 18 18 18 18 18 18 18 18 18 18 18 18 18 18 18 18 18 18 17 17 17 17 18 18 18 17 17 17
19 18 18 18 18 18 18 18 18 18 18 18 18 18 18 18 18 18 18 18 18 18 18 18 18 18 18 18 18 18 18 18 18 18 17 17 17 18 18 18 17 17 17
19 18 18 18 18 18 18 18 18 18 18 18 18 18 18 18 18 18 18 18 18 18 18 18 18 18 18 18 18 18 18 18 18 18 17 17 17 18 18 18 17 17 17
19 19 18 18 18 18 18 18 18 18 18 18 18 18 18 18 18 18 18 18 18 18 18 18 18 18 18 18 18 18 18 17 18 18 17 17 18 18 18 17 17 17 17
19 19 18 18 18 18 18 18 18 18 18 18 18 18 18 18 18 18 18 18 18 18 18 18 18 18 18 18 18 18 18 18 18 18 18 17 18 18 18 17 17 17 17
19 19 19 18 18 18 18 18 18 18 18 18 18 18 18 18 18 18 18 18 18 18 18 18 18 18 18 18 18 18 18 18 18 18 18 18 18 18 18 17 17 17 17
19 19 19 19 18 18 18 18 18 18 18 18 18 18 18 18 18 18 18 18 18 18 18 18 18 18 18 18 18 18 18 18 18 18 18 18 18 18 18 17 17 17 17
19 19 19 19 18 18 18 18 18 18 18 18 18 18 18 18 18 18 18 18 18 18 18 18 18 18 18 18 18 18 18 18 18 18 18 18 18 18 17 17 17 17 17
19 19 19 19 18 18 18 18 18 18 18 18 18 18 18 18 18 18 18 18 18 18 18 18 18 18 18 18 18 18 18 18 18 18 18 18 18 18 17 17 17 17 17
19 19 19 19 19 18 18 18 18 18 18 18 18 18 18 18 18 18 18 18 18 18 18 18 18 18 18 18 18 18 18 18 18 18 18 18 18 18 17 17 17 17 17
19 19 19 19 19 18 18 18 18 18 18 18 18 18 18 18 18 18 18 18 18 18 18 18 18 18 18 18 18 18 18 18 18 18 18 18 18 18 17 17 17 17 17
20 19 19 19 19 19 19 18 18 18 18 18 18 18 18 18 18 18 18 18 18 18 18 18 18 18 18 18 18 18 18 18 18 17 17 18 18 18 17 17 17 17 17
20 19 19 19 19 19 19 18 18 18 18 18 18 18 18 18 18 18 18 18 18 18 18 18 18 18 18 18 18 18 18 17 18 17 17 17 17 17 17 17 17 17 17
20 20 19 19 19 19 19 19 19 19 18 18 18 18 18 18 18 18 18 18 18 18 18 18 18 18 18 18 18 18 18 18 17 17 17 17 17 17 17 17 17 17 17
20 20 20 19 19 19 19 19 18 18 18 18 18 18 18 18 18 18 18 18 18 18 18 18 18 18 18 18 18 18 18 18 17 17 17 17 17 17 17 17 17 17 17
20 20 20 20 19 19 19 19 19 19 18 18 18 18 18 18 18 18 18 18 18 18 18 18 18 18 18 18 18 18 18 18 18 17 17 17 17 17 17 16 16 17 17
20 20 20 20 19 19 19 19 19 19 19 18 18 18 18 18 18 18 18 18 18 18 18 18 18 18 18 18 18 18 18 18 18 17 17 17 17 17 16 16 16 16 16
21 20 20 20 20 19 19 19 19 19 18 18 18 18 18 18 18 18 18 18 18 18 18 18 18 18 18 18 18 19 19 19 18 18 17 17 17 17 16 16 16 16 16
21 21 21 20 20 20 19 19 19 19 19 19 19 18 18 18 18 18 18 18 18 18 18 18 18 18 18 18 18 18 19 20 19 18 17 17 17 17 17 16 16 16 16
22 21 21 20 20 20 20 19 19 19 19 19 19 19 18 18 18 18 18 18 18 18 18 18 18 18 18 18 18 18 18 18 18 18 18 17 17 17 17 17 16 16 16
22 22 21 21 21 20 20 19 19 19 19 19 19 19 19 18 19 18 18 18 18 18 18 18 18 18 18 18 18 18 18 18 18 18 18 17 17 17 17 16 16 16 16
22 22 22 21 21 21 20 20 20 19 19 19 19 19 19 19 19 19 18 19 19 18 18 18 18 18 18 18 18 18 18 18 18 18 18 18 18 17 17 16 16 16 16
Wind_Speed
4 5 7 6 7 7 8 9 12 12 12 13 13 14 15 15 17 18 19 20 21 22 21 21 22 22 22 22 22 22 20 19 19 19 18 18 17 16 15 14 13 15 17
3 6 7 6 7 7 8 10 12 12 13 13 14 14 16 17 18 18 19 20 21 21 21 22 22 21 21 21 21 21 20 19 18 18 18 17 16 15 13 11 9 14 16
4 6 7 8 8 9 10 11 12 13 14 14 14 15 16 17 18 19 20 20 21 21 21 21 21 21 20 20 19 19 19 18 17 16 15 14 14 14 13 12 14 16 15
5 6 8 9 9 10 11 12 13 13 14 15 15 16 16 17 18 19 20 20 21 21 21 21 20 20 19 18 18 18 18 17 15 13 11 12 13 13 12 13 14 14 14
6 7 9 9 11 12 13 13 13 14 14 15 15 15 16 17 18 19 19 20 20 20 20 20 19 19 18 18 17 17 16 15 12 9 11 11 11 12 12 13 13 13 13
7 8 11 10 11 12 12 13 13 14 14 15 15 16 16 17 18 18 19 19 19 19 19 19 18 18 18 17 16 16 15 13 11 10 10 10 11 12 12 12 12 12 12
7 8 11 10 10 12 12 12 13 13 14 15 15 16 16 16 17 18 18 17 18 18 18 17 17 17 16 15 15 14 12 8 8 10 9 9 11 13 12 12 11 11 11
7 8 9 10 10 11 11 12 12 12 13 13 14 15 16 16 16 16 16 16 16 16 16 16 15 15 14 14 13 12 10 6 9 9 8 9 12 11 11 10 10 10 10
7 7 7 8 10 10 11 11 11 11 12 12 12 13 15 15 15 15 15 15 15 14 14 13 13 13 13 12 11 10 7 3 5 8 8 9 11 10 10 10 9 9 9
6 6 6 7 7 8 10 11 10 11 11 11 11 12 13 14 14 14 15 14 13 13 12 12 11 11 11 10 10 9 7 5 6 8 7 10 11 9 9 10 9 9 9
5 6 6 6 7 6 7 9 9 9 9 9 10 10 9 10 12 12 13 12 12 12 11 11 10 10 10 11 10 8 7 4 6 5 6 12 10 9 8 9 9 9 9
6 6 6 5 6 5 5 6 5 6 7 7 7 8 8 8 8 10 13 11 10 10 11 10 9 9 8 8 10 10 5 4 4 5 8 11 8 8 8 8 9 9 9
6 6 6 6 5 5 4 4 4 5 5 7 7 7 7 6 7 7 7 9 9 9 7 9 7 5 4 4 3 3 3 2 2 4 8 10 7 6 6 7 8 8 9
5 5 5 5 5 4 3 4 4 4 4 5 6 5 6 4 4 5 4 5 5 5 5 4 3 3 3 4 3 2 2 1 2 3 7 9 7 6 6 6 7 8 8
6 6 5 5 5 4 3 2 4 4 4 5 4 5 4 4 4 4 3 3 4 4 4 3 3 3 2 3 3 2 1 1 2 2 5 9 7 6 5 5 6 7 8
6 6 6 6 6 5 4 3 3 3 3 4 3 4 3 3 3 3 3 3 3 3 2 2 2 2 1 1 2 2 2 2 2 2 3 7 8 6 5 5 5 6 7
6 6 6 6 6 5 4 4 3 3 4 3 3 4 3 3 3 2 2 2 2 3 3 2 2 2 2 2 2 2 2 1 1 1 2 3 5 8 7 6 5 6 6
6 7 7 6 7 6 4 3 3 3 3 2 3 3 3 3 3 2 2 2 2 2 2 2 2 1 1 1 1 1 1 2 2 2 3 3 3 3 7 8 6 5 6
7 7 7 7 7 6 5 4 3 3 2 2 2 2 3 3 3 2 2 2 3 2 2 1 2 1 1 1 2 2 1 2 2 2 2 2 2 2 2 7 7 5 5
7 7 8 7 7 6 5 4 3 3 3 2 2 2 2 2 3 2 3 3 2 2 2 1 1 1 1 1 1 1 1 1 2 2 2 2 2 2 2 2 4 5 6
8 8 8 7 7 6 5 4 4 3 3 3 3 3 3 2 3 2 2 3 2 2 2 2 2 2 2 1 1 1 1 2 1 2 2 2 1 1 1 2 2 2 3
9 9 9 8 8 7 5 4 3 2 2 2 2 3 3 3 3 3 2 2 2 2 2 2 2 2 1 2 2 2 2 2 3 2 2 2 2 2 2 2 1 2 3
10 10 9 9 8 8 7 5 4 3 3 3 3 3 3 3 3 2 3 2 2 3 2 2 3 3 2 2 2 2 2 1 0 2 2 2 2 2 2 2 2 2 2
12 11 10 9 9 8 8 7 6 4 4 3 3 3 3 3 3 3 3 3 3 2 2 3 3 2 3 3 2 3 3 2 2 1 2 2 2 2 2 2 1 2 3
12 11 11 11 10 9 9 8 7 6 4 3 3 4 3 3 3 4 4 4 3 3 3 2 2 3 3 3 3 2 2 2 4 3 3 2 2 2 2 2 2 2 2
12 12 12 12 11 10 10 9 8 7 6 5 5 4 4 4 4 4 4 4 4 3 3 4 3 4 3 3 3 3 3 3 3 3 4 4 3 2 2 2 3 2 2
Wind_Direction
43 49 68 50 48 54 63 69 79 84 85 89 91 92 93 94 98 99 103 109 111 114 116 118 118 118 116 115 117 118 118 120 120 120 121 121 121 119 120 127 134 119 119
59 67 76 56 52 58 71 80 84 87 87 88 91 92 94 95 97 100 104 109 112 114 114 117 118 118 116 116 116 118 119 120 121 123 127 125 122 122 125 126 113 117 125
70 77 80 61 58 70 79 86 86 87 87 89 92 94 95 98 98 100 106 108 111 113 114 115 116 116 116 116 118 119 119 122 125 130 140 131 125 124 125 122 117 123 126
74 76 72 66 68 77 84 89 87 86 86 90 93 95 96 99 100 101 105 105 110 112 113 114 116 117 117 117 120 119 118 121 130 147 138 125 127 126 129 128 128 129 130
81 82 80 72 75 81 85 85 85 86 86 90 94 97 99 101 102 103 103 104 107 109 113 113 114 116 116 116 117 119 120 124 134 143 117 118 117 125 134 132 133 134 134
91 89 88 80 80 83 83 83 83 84 88 92 94 97 99 102 104 105 105 106 107 108 108 111 112 113 114 115 116 119 124 136 154 122 119 123 121 129 134 135 135 137 139
93 93 93 89 85 84 83 83 83 84 87 92 94 95 99 102 105 108 108 108 109 110 110 110 111 113 114 117 118 121 129 152 133 114 117 112 113 130 135 137 139 140 141
100 98 100 101 92 87 87 86 86 86 87 91 94 96 101 104 106 108 109 110 112 113 113 112 113 114 114 115 118 125 138 171 127 117 114 108 115 135 139 141 143 147 148
103 104 106 111 107 101 94 89 88 89 90 93 95 100 103 105 108 109 110 110 111 112 113 115 116 117 118 118 121 127 138 185 127 121 119 116 131 145 148 150 150 151 151
108 105 106 106 106 113 109 100 95 96 97 99 100 106 115 117 118 120 117 112 114 114 114 116 119 121 122 123 125 131 152 192 130 125 120 121 139 151 156 157 158 158 159
112 113 114 116 118 117 113 112 113 113 112 120 115 120 133 123 121 125 110 115 117 119 120 121 125 132 139 141 139 152 181 160 121 117 114 122 145 156 162 165 166 166 169
128 127 124 120 118 121 115 117 114 112 112 110 107 116 112 109 111 115 121 125 126 128 132 131 141 160 177 147 151 177 169 141 132 129 116 129 149 162 169 171 174 176 176
142 137 132 127 128 125 122 121 114 112 115 116 114 118 113 121 123 123 127 135 138 143 133 141 162 156 147 130 147 154 137 142 129 120 122 136 152 166 173 176 181 183 186
151 148 139 133 132 125 114 117 126 123 122 115 118 123 122 118 118 116 122 123 132 127 127 136 136 131 142 149 158 156 160 160 119 108 125 142 159 172 183 188 188 187 192
164 162 153 149 143 139 131 128 116 115 120 119 121 121 126 129 123 115 113 122 125 127 143 144 134 137 159 160 161 149 145 121 143 139 136 148 162 173 182 190 194 196 203
171 165 162 164 156 153 149 142 128 128 125 120 126 128 138 130 123 126 132 128 128 131 125 139 136 155 164 136 146 144 168 162 156 174 165 155 165 171 181 190 199 204 213
173 167 168 170 165 164 162 161 152 148 141 138 133 138 155 152 146 152 140 145 127 129 143 151 143 162 166 162 155 161 169 175 164 178 194 183 173 173 180 191 205 211 219
174 170 176 173 164 166 168 167 157 147 136 139 142 147 157 155 160 171 148 128 131 154 162 148 167 157 146 170 157 167 157 165 180 196 200 199 204 187 177 184 200 217 230
180 178 177 176 172 171 166 167 164 151 157 157 150 154 149 161 167 179 155 131 172 172 167 188 130 179 164 181 186 172 194 196 203 212 214 213 204 208 190 168 187 204 223
181 181 181 180 179 176 174 169 167 166 173 171 161 148 160 169 165 190 172 159 186 169 173 163 150 169 210 209 222 139 232 233 220 217 228 214 200 208 221 216 200 196 199
183 183 184 184 178 182 184 188 182 182 182 172 175 167 177 183 171 197 193 163 198 174 185 188 187 173 190 179 213 210 212 208 211 215 227 241 211 208 222 224 241 251 199
188 186 185 187 184 188 184 192 191 188 190 182 189 170 189 184 191 193 191 203 181 178 184 193 199 232 208 197 248 259 239 187 185 194 208 216 226 215 210 207 228 259 277
192 191 190 188 186 191 188 189 183 180 205 194 189 183 189 189 191 202 196 209 201 216 188 199 206 220 232 225 240 273 288 330 320 169 197 219 231 247 243 211 216 238 257
193 190 189 187 188 189 191 197 201 203 205 196 199 175 179 185 194 205 213 208 222 221 191 218 190 223 235 246 224 245 280 319 289 267 210 194 206 234 252 252 226 217 231
192 188 186 187 190 190 195 196 203 210 206 197 186 174 198 189 203 212 218 217 218 226 216 238 217 236 235 253 256 247 237 233 250 267 272 259 238 230 227 234 234 229 233
190 189 187 186 190 191 195 200 203 206 207 203 194 192 204 202 202 204 212 215 220 222 214 218 219 216 240 259 266 261 250 248 249 254 269 262 257 241 226 232 233 228 226
Height
1508 1506 1503 1501 1498 1496 1494 1493 1492 1492 1492 1493 1494 1495 1495 1495 1496 1496 1497 1499 1501 1504 1507 1509 1512 1515 1518 1521 1523 1526 1528 1531 1534 1536 1539 1541 1543 1545 1546 1548 1550 1551 1551
1509 1507 1504 1501 1498 1495 1494 1495 1495 1495 1495 1496 1496 1497 1498 1498 1499 1500 1501 1503 1505 1508 1511 1513 1516 1519 1522 1524 1527 1529 1531 1533 1536 1539 1541 1543 1545 1546 1548 1549 1551 1552 1553
1510 1509 1506 1502 1498 1495 1494 1497 1498 1498 1498 1498 1499 1500 1501 1502 1503 1504 1506 1508 1510 1513 1515 1517 1520 1522 1525 1528 1530 1532 1535 1537 1539 1542 1544 1547 1547 1548 1550 1551 1552 1553 1554
1512 1511 1508 1504 1500 1497 1497 1500 1501 1502 1502 1502 1502 1504 1505 1506 1507 1508 1510 1512 1514 1517 1519 1521 1523 1526 1528 1531 1533 1535 1537 1539 1542 1545 1548 1549 1550 1550 1551 1552 1554 1555 1556
1514 1512 1510 1507 1505 1503 1503 1504 1505 1505 1506 1506 1506 1507 1509 1510 1511 1513 1514 1516 1518 1520 1522 1524 1527 1529 1532 1534 1536 1538 1540 1542 1544 1548 1550 1551 1551 1551 1552 1553 1555 1556 1557
1516 1515 1513 1511 1510 1509 1509 1509 1509 1509 1509 1510 1511 1512 1513 1514 1515 1517 1518 1520 1522 1524 1525 1528 1530 1533 1535 1537 1538 1540 1542 1545 1547 1551 1551 1553 1553 1553 1554 1555 1555 1557 1558
1518 1517 1516 1514 1513 1513 1513 1513 1513 1513 1513 1514 1515 1516 1517 1518 1519 1521 1522 1524 1526 1528 1530 1532 1534 1536 1538 1539 1541 1543 1545 1547 1551 1552 1553 1554 1554 1554 1555 1556 1557 1558 1559
1520 1519 1518 1517 1516 1516 1516 1516 1516 1517 1517 1518 1519 1519 1520 1521 1523 1524 1526 1528 1529 1531 1534 1536 1537 1539 1541 1542 1544 1545 1547 1549 1552 1554 1554 1555 1554 1555 1557 1557 1558 1559 1560
1522 1521 1521 1521 1520 1519 1519 1519 1519 1520 1520 1521 1522 1523 1524 1525 1527 1528 1530 1532 1533 1535 1537 1539 1540 1542 1544 1545 1546 1548 1549 1551 1554 1555 1556 1556 1556 1557 1558 1558 1559 1560 1561
1523 1523 1523 1523 1523 1523 1523 1522 1522 1523 1523 1524 1525 1526 1527 1529 1530 1532 1534 1535 1537 1538 1540 1541 1543 1544 1546 1547 1548 1550 1551 1553 1556 1557 1557 1557 1557 1557 1558 1559 1560 1561 1561
1524 1524 1525 1525 1525 1525 1526 1525 1525 1526 1526 1527 1528 1529 1531 1533 1535 1536 1537 1538 1539 1541 1542 1544 1545 1547 1548 1549 1550 1552 1553 1556 1557 1558 1558 1557 1557 1558 1559 1559 1560 1561 1561
1525 1526 1526 1527 1527 1527 1527 1528 1528 1529 1529 1530 1531 1532 1534 1535 1537 1538 1539 1541 1542 1543 1544 1546 1547 1548 1550 1552 1553 1553 1556 1557 1558 1558 1558 1557 1558 1558 1559 1560 1560 1561 1561
1526 1527 1527 1528 1528 1529 1529 1530 1530 1531 1531 1532 1533 1534 1535 1537 1539 1541 1542 1543 1544 1546 1547 1548 1550 1551 1553 1553 1554 1556 1557 1558 1558 1559 1558 1557 1558 1559 1559 1559 1560 1560 1561
1527 1527 1528 1529 1529 1529 1531 1531 1532 1533 1533 1534 1534 1536 1537 1538 1540 1542 1543 1545 1546 1547 1548 1550 1551 1552 1553 1554 1555 1556 1557 1557 1558 1558 1557 1557 1558 1558 1558 1559 1559 1559 1560
1526 1527 1528 1529 1529 1530 1531 1532 1533 1534 1535 1535 1536 1537 1538 1540 1541 1543 1544 1545 1547 1548 1549 1550 1551 1552 1553 1554 1555 1555 1556 1556 1557 1557 1557 1557 1557 1557 1558 1558 1558 1558 1558
1526 1527 1528 1529 1530 1531 1531 1532 1534 1535 1536 1537 1537 1538 1539 1541 1542 1543 1544 1546 1547 1548 1549 1550 1551 1552 1553 1554 1554 1554 1555 1556 1556 1556 1557 1556 1556 1556 1556 1556 1557 1557 1557
1526 1527 1528 1529 1531 1531 1533 1534 1535 1536 1537 1538 1538 1539 1540 1541 1542 1544 1545 1546 1547 1548 1549 1550 1551 1552 1553 1553 1553 1554 1554 1555 1555 1555 1556 1556 1556 1555 1555 1555 1555 1555 1555
1526 1527 1528 1530 1531 1532 1533 1534 1536 1537 1538 1538 1539 1540 1540 1541 1542 1544 1545 1547 1547 1548 1549 1550 1551 1552 1553 1553 1554 1554 1554 1554 1554 1554 1555 1555 1555 1555 1554 1553 1553 1554 1554
1526 1527 1528 1530 1531 1532 1533 1534 1536 1537 1538 1539 1539 1540 1541 1541 1543 1544 1545 1546 1547 1548 1549 1550 1551 1552 1552 1553 1553 1553 1553 1553 1554 1554 1554 1554 1554 1553 1553 1552 1552 1552 1552
1526 1527 1528 1529 1531 1532 1533 1534 1536 1537 1538 1539 1540 1540 1541 1542 1543 1544 1545 1546 1548 1549 1549 1549 1550 1550 1551 1552 1553 1553 1553 1553 1553 1553 1553 1553 1552 1552 1552 1552 1551 1550 1549
1525 1526 1527 1529 1530 1532 1533 1535 1536 1537 1538 1539 1540 1540 1541 1542 1543 1544 1546 1546 1547 1548 1548 1549 1550 1550 1551 1551 1552 1552 1552 1552 1552 1552 1552 1552 1551 1551 1550 1550 1550 1549 1548
1524 1525 1527 1528 1530 1531 1533 1534 1535 1537 1538 1539 1540 1540 1541 1542 1543 1544 1545 1546 1547 1547 1548 1548 1549 1550 1550 1551 1551 1551 1551 1552 1550 1551 1550 1550 1550 1550 1549 1549 1547 1547 1547
1522 1524 1526 1527 1529 1530 1532 1534 1535 1536 1537 1539 1539 1540 1541 1541 1542 1543 1544 1546 1546 1547 1548 1548 1548 1549 1550 1550 1550 1551 1550 1550 1550 1550 1549 1549 1548 1548 1548 1547 1546 1545 1544
1520 1522 1524 1526 1528 1529 1531 1533 1534 1536 1537 1538 1538 1539 1540 1541 1542 1543 1544 1545 1545 1546 1546 1547 1548 1548 1548 1549 1549 1549 1549 1549 1549 1549 1549 1548 1547 1546 1546 1546 1545 1544 1543
1518 1520 1522 1524 1526 1528 1530 1531 1533 1535 1536 1537 1537 1537 1539 1540 1541 1542 1543 1543 1544 1545 1545 1545 1546 1546 1547 1547 1548 1548 1547 1547 1548 1548 1547 1547 1546 1545 1544 1544 1543 1542 1541
1516 1518 1520 1522 1524 1526 1528 1530 1531 1533 1534 1535 1535 1536 1538 1539 1540 1541 1541 1542 1543 1544 1544 1544 1544 1544 1544 1545 1545 1546 1546 1546 1545 1545 1545 1544 1544 1544 1543 1542 1542 1541 1540